| time (UTC) | temp C | wind direction | speed KPH | gust KPH | rain 1hr cm | rain 24hr cm | rain mn cm | humidity % | barometer mb |
| 20260901060029 | 25 | 128 | 3.2 | 11.3 | 0.00 | 0.00 | 0.00 | 43 | 1015.3 |
| 20260901055033 | 25 | 126 | 3.2 | 6.4 | 0.00 | 0.00 | 0.00 | 43 | 1015.3 |
| 20260901054024 | 25 | 134 | 1.6 | 3.2 | 0.00 | 0.00 | 0.00 | 42 | 1015.1 |
| 20260901053058 | 25 | 130 | 1.6 | 6.4 | 0.00 | 0.00 | 0.00 | 42 | 1015.1 |
| 20260901052033 | 25 | 123 | 1.6 | 4.8 | 0.00 | 0.00 | 0.00 | 41 | 1015.0 |
| 20260901051043 | 25 | 138 | 1.6 | 6.4 | 0.00 | 0.00 | 0.00 | 41 | 1015.0 |
| 20260901050024 | 25 | 152 | 1.6 | 3.2 | 0.00 | 0.00 | 0.00 | 41 | 1014.8 |
| 20260901045027 | 26 | 152 | 0.0 | 3.2 | 0.00 | 0.00 | 0.00 | 40 | 1014.8 |
| 20260901044017 | 26 | 152 | 0.0 | 1.6 | 0.00 | 0.00 | 0.00 | 39 | 1014.9 |
| 20260901043031 | 26 | 152 | 0.0 | 3.2 | 0.00 | 0.00 | 0.00 | 38 | 1014.7 |
| 20260901042029 | 26 | 152 | 1.6 | 3.2 | 0.00 | 0.00 | 0.00 | 38 | 1014.8 |
| 20260901041108 | 26 | 152 | 0.0 | 3.2 | 0.00 | 0.00 | 0.00 | 37 | 1014.7 |
| 20260901040041 | 26 | 154 | 0.0 | 3.2 | 0.00 | 0.00 | 0.00 | 37 | 1014.9 |
| 20260901035050 | 27 | 148 | 0.0 | 3.2 | 0.00 | 0.00 | 0.00 | 36 | 1014.9 |
| 20260901034024 | 27 | 145 | 0.0 | 1.6 | 0.00 | 0.00 | 0.00 | 35 | 1014.9 |
| 20260901033020 | 27 | 145 | 0.0 | 3.2 | 0.00 | 0.00 | 0.00 | 35 | 1014.9 |
| 20260901032027 | 27 | 138 | 1.6 | 4.8 | 0.00 | 0.00 | 0.00 | 34 | 1014.8 |
| 20260901031023 | 27 | 132 | 1.6 | 3.2 | 0.00 | 0.00 | 0.00 | 33 | 1014.7 |
| 20260901030043 | 28 | 129 | 1.6 | 4.8 | 0.00 | 0.00 | 0.00 | 32 | 1014.6 |
| 20260901025019 | 28 | 148 | 3.2 | 4.8 | 0.00 | 0.00 | 0.00 | 32 | 1014.4 |
| 20260901024030 | 28 | 148 | 1.6 | 6.4 | 0.00 | 0.00 | 0.00 | 31 | 1014.5 |
| 20260901023025 | 28 | 133 | 1.6 | 4.8 | 0.00 | 0.00 | 0.00 | 30 | 1014.3 |
| 20260901022121 | 28 | 140 | 1.6 | 4.8 | 0.00 | 0.00 | 0.00 | 30 | 1014.2 |
| 20260901021016 | 29 | 136 | 1.6 | 6.4 | 0.00 | 0.00 | 0.00 | 30 | 1014.1 |
| 20260901015530 | 30 | 135 | 1.6 | 4.8 | 0.00 | 0.00 | 0.00 | 29 | 1013.9 |
| 20260901014546 | 30 | 142 | 1.6 | 4.8 | 0.00 | 0.00 | 0.00 | 29 | 1013.7 |
| 20260901013521 | 30 | 131 | 3.2 | 6.4 | 0.00 | 0.00 | 0.00 | 28 | 1013.8 |
| 20260901012537 | 30 | 126 | 3.2 | 6.4 | 0.00 | 0.00 | 0.00 | 28 | 1013.8 |
| 20260901011527 | 31 | 130 | 3.2 | 11.3 | 0.00 | 0.00 | 0.00 | 28 | 1013.7 |
| 20260901010543 | 31 | 134 | 3.2 | 6.4 | 0.00 | 0.00 | 0.00 | 27 | 1013.6 |
| 20260901005559 | 31 | 126 | 4.8 | 6.4 | 0.00 | 0.00 | 0.00 | 27 | 1013.5 |
| 20260901004530 | 31 | 149 | 3.2 | 11.3 | 0.00 | 0.00 | 0.00 | 27 | 1013.6 |
| 20260901003526 | 32 | 129 | 3.2 | 9.7 | 0.00 | 0.00 | 0.00 | 27 | 1013.6 |
| 20260901002521 | 32 | 136 | 3.2 | 9.7 | 0.00 | 0.00 | 0.00 | 26 | 1013.5 |
| 20260901001517 | 33 | 127 | 3.2 | 11.3 | 0.00 | 0.00 | 0.00 | 25 | 1013.4 |
| 20260901000528 | 33 | 118 | 6.4 | 14.5 | 0.00 | 0.00 | 0.00 | 26 | 1013.5 |
| 20260831235523 | 33 | 109 | 6.4 | 16.1 | 0.00 | 0.00 | 0.00 | 26 | 1013.4 |
| 20260831234519 | 33 | 128 | 6.4 | 11.3 | 0.00 | 0.00 | 0.00 | 25 | 1013.6 |
| 20260831233541 | 34 | 133 | 4.8 | 12.9 | 0.00 | 0.00 | 0.00 | 25 | 1013.5 |
| 20260831232530 | 34 | 146 | 4.8 | 11.3 | 0.00 | 0.00 | 0.00 | 25 | 1013.6 |
| 20260831231524 | 34 | 145 | 3.2 | 11.3 | 0.00 | 0.00 | 0.00 | 25 | 1013.5 |
| 20260831230519 | 34 | 110 | 8.0 | 14.5 | 0.00 | 0.00 | 0.00 | 24 | 1013.6 |
| 20260831225549 | 35 | 133 | 6.4 | 14.5 | 0.00 | 0.00 | 0.00 | 24 | 1013.6 |
| 20260831224524 | 35 | 109 | 9.7 | 17.7 | 0.00 | 0.00 | 0.00 | 25 | 1013.6 |
| 20260831223519 | 34 | 136 | 4.8 | 14.5 | 0.00 | 0.00 | 0.00 | 26 | 1013.7 |
| 20260831222529 | 35 | 128 | 4.8 | 16.1 | 0.00 | 0.00 | 0.00 | 25 | 1013.8 |
| 20260831221524 | 36 | 139 | 6.4 | 16.1 | 0.00 | 0.00 | 0.00 | 24 | 1013.9 |
| 20260831220519 | 35 | 141 | 4.8 | 14.5 | 0.00 | 0.00 | 0.00 | 25 | 1013.8 |
| 20260831215529 | 36 | 157 | 4.8 | 11.3 | 0.00 | 0.00 | 0.00 | 23 | 1013.9 |
| 20260831214524 | 37 | 148 | 4.8 | 11.3 | 0.00 | 0.00 | 0.00 | 22 | 1014.1 |
| 20260831213519 | 37 | 174 | 4.8 | 11.3 | 0.00 | 0.00 | 0.00 | 22 | 1014.1 |
| 20260831212529 | 37 | 130 | 6.4 | 14.5 | 0.00 | 0.00 | 0.00 | 21 | 1014.2 |
| 20260831211524 | 37 | 109 | 6.4 | 14.5 | 0.00 | 0.00 | 0.00 | 22 | 1014.3 |
| 20260831210519 | 36 | 137 | 6.4 | 17.7 | 0.00 | 0.00 | 0.00 | 22 | 1014.4 |
| 20260831205530 | 36 | 109 | 8.0 | 14.5 | 0.00 | 0.00 | 0.00 | 22 | 1014.6 |
| 20260831204524 | 37 | 94 | 8.0 | 14.5 | 0.00 | 0.00 | 0.00 | 23 | 1014.7 |
| 20260831203519 | 36 | 130 | 9.7 | 16.1 | 0.00 | 0.00 | 0.00 | 23 | 1015.0 |
| 20260831202530 | 37 | 124 | 11.3 | 20.9 | 0.00 | 0.00 | 0.00 | 23 | 1015.0 |
| 20260831201545 | 37 | 127 | 8.0 | 16.1 | 0.00 | 0.00 | 0.00 | 22 | 1015.2 |
| 20260831200520 | 37 | 139 | 4.8 | 11.3 | 0.00 | 0.00 | 0.00 | 21 | 1015.2 |
| 20260831195550 | 37 | 128 | 3.2 | 11.3 | 0.00 | 0.00 | 0.00 | 23 | 1015.4 |
| 20260831194524 | 36 | 145 | 8.0 | 20.9 | 0.00 | 0.00 | 0.00 | 24 | 1015.5 |
| 20260831193519 | 36 | 119 | 6.4 | 17.7 | 0.00 | 0.00 | 0.00 | 25 | 1015.7 |
| 20260831192529 | 35 | 145 | 4.8 | 11.3 | 0.00 | 0.00 | 0.00 | 26 | 1015.8 |
| 20260831191524 | 35 | 140 | 11.3 | 25.7 | 0.00 | 0.00 | 0.00 | 26 | 1015.9 |
| 20260831190519 | 35 | 115 | 8.0 | 16.1 | 0.00 | 0.00 | 0.00 | 26 | 1016.0 |
| 20260831185529 | 36 | 143 | 4.8 | 17.7 | 0.00 | 0.00 | 0.00 | 25 | 1016.0 |
| 20260831184604 | 37 | 127 | 9.7 | 16.1 | 0.00 | 0.00 | 0.00 | 24 | 1016.1 |
| 20260831183539 | 37 | 147 | 6.4 | 14.5 | 0.00 | 0.00 | 0.00 | 25 | 1016.1 |
| 20260831182529 | 37 | 157 | 6.4 | 20.9 | 0.00 | 0.00 | 0.00 | 26 | 1016.4 |
| 20260831181524 | 36 | 135 | 4.8 | 14.5 | 0.00 | 0.00 | 0.00 | 27 | 1016.6 |
| 20260831180519 | 36 | 126 | 6.4 | 17.7 | 0.00 | 0.00 | 0.00 | 27 | 1016.8 |
| 20260831175530 | 36 | 152 | 3.2 | 9.7 | 0.00 | 0.00 | 0.00 | 28 | 1016.9 |
| 20260831174525 | 35 | 124 | 4.8 | 12.9 | 0.00 | 0.00 | 0.00 | 29 | 1017.2 |
| 20260831173520 | 35 | 163 | 4.8 | 11.3 | 0.00 | 0.00 | 0.00 | 29 | 1017.3 |
| 20260831172530 | 35 | 126 | 6.4 | 12.9 | 0.00 | 0.00 | 0.00 | 29 | 1017.4 |
| 20260831171525 | 35 | 134 | 8.0 | 16.1 | 0.00 | 0.00 | 0.00 | 28 | 1017.5 |
| 20260831170520 | 35 | 140 | 4.8 | 14.5 | 0.00 | 0.00 | 0.00 | 29 | 1017.6 |
| 20260831165515 | 35 | 139 | 3.2 | 9.7 | 0.00 | 0.00 | 0.00 | 29 | 1017.6 |
| 20260831164525 | 34 | 152 | 3.2 | 14.5 | 0.00 | 0.00 | 0.00 | 30 | 1017.6 |
| 20260831163520 | 34 | 123 | 6.4 | 11.3 | 0.00 | 0.00 | 0.00 | 30 | 1017.7 |
| 20260831162515 | 33 | 161 | 3.2 | 16.1 | 0.00 | 0.00 | 0.00 | 32 | 1017.7 |
| 20260831161525 | 33 | 185 | 4.8 | 14.5 | 0.00 | 0.00 | 0.00 | 31 | 1017.8 |
| 20260831160521 | 33 | 158 | 3.2 | 11.3 | 0.00 | 0.00 | 0.00 | 32 | 1017.7 |
| 20260831155515 | 32 | 143 | 3.2 | 9.7 | 0.00 | 0.00 | 0.00 | 35 | 1017.7 |
| 20260831154525 | 31 | 157 | 3.2 | 11.3 | 0.00 | 0.00 | 0.00 | 36 | 1017.6 |
| 20260831153520 | 31 | 154 | 3.2 | 11.3 | 0.00 | 0.00 | 0.00 | 38 | 1017.5 |
| 20260831152535 | 30 | 145 | 3.2 | 11.3 | 0.00 | 0.00 | 0.00 | 40 | 1017.5 |
| 20260831151545 | 30 | 159 | 3.2 | 12.9 | 0.00 | 0.00 | 0.00 | 43 | 1017.5 |
| 20260831150520 | 28 | 222 | 3.2 | 9.7 | 0.00 | 0.00 | 0.00 | 46 | 1017.4 |
| 20260831145516 | 28 | 135 | 1.6 | 6.4 | 0.00 | 0.00 | 0.00 | 47 | 1017.4 |
| 20260831144525 | 28 | 145 | 3.2 | 12.9 | 0.00 | 0.00 | 0.00 | 49 | 1017.4 |
| 20260831143520 | 27 | 175 | 4.8 | 16.1 | 0.00 | 0.00 | 0.00 | 52 | 1017.4 |
| 20260831142515 | 26 | 147 | 3.2 | 12.9 | 0.00 | 0.00 | 0.00 | 54 | 1017.3 |
| 20260831141525 | 26 | 171 | 4.8 | 12.9 | 0.00 | 0.00 | 0.00 | 56 | 1017.4 |
| 20260831140520 | 25 | 159 | 3.2 | 12.9 | 0.00 | 0.00 | 0.00 | 59 | 1017.2 |
| 20260831135530 | 24 | 161 | 4.8 | 12.9 | 0.00 | 0.00 | 0.00 | 61 | 1017.2 |
| 20260831134524 | 23 | 170 | 4.8 | 9.7 | 0.00 | 0.00 | 0.00 | 63 | 1017.2 |
| 20260831133520 | 23 | 173 | 4.8 | 11.3 | 0.00 | 0.00 | 0.00 | 65 | 1017.2 |
| 20260831132528 | 22 | 162 | 3.2 | 11.3 | 0.00 | 0.00 | 0.00 | 66 | 1017.0 |
| 20260831131524 | 22 | 154 | 3.2 | 14.5 | 0.00 | 0.00 | 0.00 | 66 | 1016.9 |
| 20260831130518 | 22 | 154 | 3.2 | 11.3 | 0.00 | 0.00 | 0.00 | 67 | 1016.7 |
| 20260831125527 | 22 | 159 | 3.2 | 6.4 | 0.00 | 0.00 | 0.00 | 67 | 1016.7 |
| 20260831124520 | 22 | 171 | 3.2 | 9.7 | 0.00 | 0.00 | 0.00 | 67 | 1016.3 |
| 20260831123529 | 21 | 160 | 1.6 | 11.3 | 0.00 | 0.00 | 0.00 | 67 | 1016.3 |
| 20260831122523 | 21 | 177 | 3.2 | 9.7 | 0.00 | 0.00 | 0.00 | 67 | 1016.1 |
| 20260831121538 | 21 | 169 | 3.2 | 6.4 | 0.00 | 0.00 | 0.00 | 67 | 1016.0 |
| 20260831120528 | 21 | 170 | 1.6 | 6.4 | 0.00 | 0.00 | 0.00 | 67 | 1015.9 |
| 20260831115543 | 21 | 158 | 3.2 | 6.4 | 0.00 | 0.00 | 0.00 | 66 | 1015.9 |
| 20260831114518 | 21 | 150 | 3.2 | 11.3 | 0.00 | 0.00 | 0.00 | 66 | 1015.7 |
| 20260831113528 | 22 | 154 | 3.2 | 9.7 | 0.00 | 0.00 | 0.00 | 65 | 1015.6 |
| 20260831112523 | 22 | 156 | 3.2 | 6.4 | 0.00 | 0.00 | 0.00 | 65 | 1015.4 |
| 20260831111523 | 22 | 151 | 1.6 | 6.4 | 0.00 | 0.00 | 0.00 | 63 | 1015.4 |
| 20260831110518 | 22 | 147 | 1.6 | 4.8 | 0.00 | 0.00 | 0.00 | 63 | 1015.4 |
| 20260831105528 | 22 | 151 | 1.6 | 4.8 | 0.00 | 0.00 | 0.00 | 62 | 1015.4 |
| 20260831104544 | 22 | 153 | 1.6 | 4.8 | 0.00 | 0.00 | 0.00 | 62 | 1015.4 |
| 20260831103540 | 22 | 162 | 0.0 | 3.2 | 0.00 | 0.00 | 0.00 | 61 | 1015.3 |
| 20260831102516 | 22 | 167 | 3.2 | 9.7 | 0.00 | 0.00 | 0.00 | 60 | 1015.3 |
| 20260831101547 | 22 | 165 | 3.2 | 6.4 | 0.00 | 0.00 | 0.00 | 60 | 1015.4 |
| 20260831100522 | 22 | 173 | 3.2 | 9.7 | 0.00 | 0.00 | 0.00 | 59 | 1015.3 |
| 20260831095518 | 22 | 168 | 3.2 | 6.4 | 0.00 | 0.00 | 0.00 | 58 | 1015.3 |
| 20260831094528 | 22 | 173 | 3.2 | 9.7 | 0.00 | 0.00 | 0.00 | 58 | 1015.2 |
| 20260831093524 | 22 | 166 | 1.6 | 4.8 | 0.00 | 0.00 | 0.00 | 57 | 1015.3 |
| 20260831092519 | 23 | 158 | 3.2 | 9.7 | 0.00 | 0.00 | 0.00 | 57 | 1015.2 |
| 20260831091515 | 23 | 158 | 3.2 | 6.4 | 0.00 | 0.00 | 0.00 | 56 | 1015.1 |
| 20260831090526 | 23 | 164 | 4.8 | 9.7 | 0.00 | 0.00 | 0.00 | 55 | 1015.0 |
| 20260831085542 | 23 | 179 | 4.8 | 14.5 | 0.00 | 0.00 | 0.00 | 55 | 1014.9 |
| 20260831084517 | 23 | 170 | 4.8 | 14.5 | 0.00 | 0.00 | 0.00 | 54 | 1015.0 |
| 20260831083528 | 23 | 161 | 4.8 | 12.9 | 0.00 | 0.00 | 0.00 | 53 | 1014.9 |
| 20260831082523 | 23 | 167 | 4.8 | 11.3 | 0.00 | 0.00 | 0.00 | 52 | 1014.8 |
| 20260831081519 | 23 | 183 | 4.8 | 12.9 | 0.00 | 0.00 | 0.00 | 51 | 1014.8 |
| 20260831080530 | 23 | 168 | 3.2 | 6.4 | 0.00 | 0.00 | 0.00 | 50 | 1014.8 |
| 20260831075525 | 23 | 171 | 1.6 | 4.8 | 0.00 | 0.00 | 0.00 | 50 | 1014.9 |
| 20260831074541 | 23 | 171 | 3.2 | 9.7 | 0.00 | 0.00 | 0.00 | 49 | 1014.9 |
| 20260831073516 | 23 | 174 | 3.2 | 9.7 | 0.00 | 0.00 | 0.00 | 49 | 1014.8 |
| 20260831072527 | 24 | 180 | 3.2 | 12.9 | 0.00 | 0.00 | 0.00 | 48 | 1014.8 |
| 20260831071523 | 24 | 166 | 3.2 | 6.4 | 0.00 | 0.00 | 0.00 | 48 | 1014.8 |
| 20260831070519 | 24 | 167 | 3.2 | 12.9 | 0.00 | 0.00 | 0.00 | 47 | 1015.0 |
| 20260831065529 | 25 | 168 | 3.2 | 11.3 | 0.00 | 0.00 | 0.00 | 46 | 1014.9 |
| 20260831064525 | 25 | 160 | 3.2 | 11.3 | 0.00 | 0.00 | 0.00 | 46 | 1014.9 |
| 20260831063521 | 25 | 173 | 3.2 | 6.4 | 0.00 | 0.00 | 0.00 | 45 | 1014.9 |
| 20260831062537 | 25 | 170 | 3.2 | 11.3 | 0.00 | 0.00 | 0.00 | 44 | 1014.9 |
| 20260831061527 | 25 | 169 | 3.2 | 11.3 | 0.00 | 0.00 | 0.00 | 44 | 1014.8 |
| 20260831060523 | 25 | 163 | 3.2 | 9.7 | 0.00 | 0.00 | 0.00 | 44 | 1014.9 |